Location: SBMNH
(34.4407°N, 119.7157°W)
Time: 15:56:28
(UTC-07:00)

Tiangong - Pass Details

Date: 18 August 2022
Orbit: 382 x 385 km, 41.5° (Epoch: 07 October)

Event Time Altitude Azimuth Distance (km) Brightness Sun altitude
Rises 21:57:39 0° 289° (WNW) 2,260 2.9 -25.5°
Reaches altitude 10° 22:00:01 10° 306° (NW) 1,410 1.7 -25.9°
Enters shadow 22:01:46 20° 337° (NNW) 972 0.5 -26.2°
